www.pogodaiklimat.ru

Погода и климат >> Архив погоды >> Чехия >> Замок Namest nad Oslav


ПОГОДА в Замке Namest nad Oslav

  • Прогноз погоды в Замке Namest nad Oslav
  • Монитор погоды в Замке Namest nad Oslav

АРХИВ ПОГОДЫ в Замке Namest nad Oslav

Время (UTC), дата Ветер
(напр.,м/с)
 
Видим.   Явления Облачность Т
(С)
Тd
(С)
f
(%)
Тe
(С)
Тes
(С)
Комфортность P
(гПа)
Po
(гПа)
Тmin
(С)
Tmax
(С)
R
(мм)
R24
(мм)
S
(см)
22 13.06 СВ 3 20 км гроза без осадков 9/4 1320 м
[Cb cap Ci ing]
+20.6 +16.5 77 +24 +24 комфорт 1013.3 959.5
23 13.06 СЗ 5 20 км гроза без осадков 9/4 1320 м
[Cb cap Ci ing]
+19.5 +18.0 91 +22 +22 комфорт 1014.4 960.4
00 14.06 С 4 20 км в посл. час гроза 3/0
[Ci ing]
+19.0 +15.7 81 +20 +20 1014.7 960.5
01 14.06 С 5 20 км 3/0
[Ac cuf Ci ing]
+17.6 +15.4 87 +17 +17 1016.0 961.5
02 14.06 СЗ 5 20 км 1/0
[Ac cuf]
+17.7 +15.1 85 +17 +17 1016.1 961.6
03 14.06 С 4 20 км 8/0 2000 м
[Ac cuf]
+17.9 +15.7 87 +18 +18 1016.5 962.0
04 14.06 СЗ 4 20 км ясно +18.3 +15.8 85 +19 +19 1016.8 962.4
05 14.06 СЗ 4 30 км 8/8 1500 м
[Sc]
+19.5 +15.7 79 +21 +22 комфорт 1017.3 963.1
06 14.06 СЗ 2 30 км 6/3 1080 м
[Sc Ac trans]
+21.0 +16.6 76 +25 +28 комфорт 1018.0 964.0 +17.0
07 14.06 СЗ 3 30 км 1/0
[Ac trans]
+21.6 +16.4 72 +25 +32 комфорт 1017.9 964.0
08 14.06 С 1 30 км 1/0
[Ci fib]
+24.4 +15.8 59 +28 +41 душно 1017.6 964.2
09 14.06 В 2 30 км 4/1 960 м
[Cu hum Ci fib]
+25.5 +17.1 60 +29 +42 душно 1017.6 964.4
10 14.06 СВ 3 30 км 3/3 1140 м
[Cu hum]
+26.9 +18.1 59 +32 +42 очень
душно
1017.2 964.3
11 14.06 СВ 3 30 км 3/3 1300 м
[Cu hum]
+26.5 +17.7 58 +31 +41 душно 1017.2 964.2
12 14.06 В 4 30 км 4/4 1350 м
[Cu hum]
+27.0 +17.9 57 +31 +38 душно 1016.6 963.8
13 14.06 ЮВ 4 30 км 3/3 1350 м
[Cu hum]
+28.5 +17.3 51 +33 +40 очень
душно
1016.0 963.4
14 14.06 ЮВ 4 30 км 1/1 1500 м
[Cu hum]
+28.9 +14.0 40 +31 +38 жарко 1016.0 963.4
15 14.06 В 3 30 км 1/1 1500 м
[Cu hum]
+28.5 +15.5 45 +31 +37 душно 1015.5 962.9
16 14.06 В 4 30 км 1/1 1500 м
[Cu hum]
+28.3 +15.2 45 +31 +34 душно 1015.1 962.5
17 14.06 В 3 30 км 1/0
[Ci fib]
+27.5 +17.0 53 +31 +33 душно 1015.0 962.3
18 14.06 В 3 25 км ясно +26.3 +18.8 63 +31 +32 душно 1015.2 962.3 +29.1
19 14.06 В 4 20 км 1/0
[Ci fib]
+24.6 +18.6 69 +29 +29 душно 1015.2 962.0
20 14.06 В 3 20 км 1/0
[Ci fib]
+23.2 +18.7 76 +29 +29 душно 1015.6 962.2
21 14.06 В 4 20 км 1/0
[Ci fib]
+22.9 +17.9 73 +28 +28 душно 1015.5 962.0
22 14.06 В 4 15 км 5/0
[Ci fib]
+22.1 +19.0 83 +28 +28 душно 1015.1 961.5
23 14.06 В 3 10 км 8/0
[Ci fib]
+21.3 +19.5 89 +26 +26 душно 1014.7 961.0
00 15.06 В 4 10 км 6/0
[Ci fib]
+21.0 +18.7 87 +26 +26 душно 1014.3 960.6
01 15.06 В 5 10 км 6/0
[Ci fib]
+20.7 +17.5 82 +24 +24 комфорт 1013.8 960.0
02 15.06 В 5 20 км 4/0
[Ci fib]
+20.6 +16.7 78 +24 +24 комфорт 1013.2 959.4
03 15.06 В 5 10 км 6/0
[Ci sp]
+19.7 +16.1 80 +22 +22 комфорт 1012.9 958.9
04 15.06 В 6 10 км 6/0
[Cs]
+20.8 +15.6 72 +24 +24 комфорт 1012.3 958.6
05 15.06 В 5 20 км 9/0
[Cs]
+21.5 +16.5 73 +25 +26 комфорт 1012.3 958.7
06 15.06 В 5 20 км 6/0
[Ci fib]
+22.0 +16.9 73 +26 +29 душно 1012.2 958.7 +19.7
07 15.06 ЮВ 4 20 км 5/0
[Ac As Ci fib]
+23.9 +18.2 70 +28 +32 душно 1012.0 958.9
08 15.06 ЮВ 7 20 км 6/0
[Ac inh]
+26.2 +18.4 62 +31 +33 очень
душно
1011.6 958.9
09 15.06 ЮВ 5 20 км 4/0
[Ac trans Ci fib]
+26.7 +18.0 59 +31 +38 душно 1011.4 958.8
10 15.06 ЮВ 6 20 км 3/0
[Ac trans Ci fib]
+27.8 +18.8 58 +33 +39 очень
душно
1010.9 958.5
11 15.06 ЮВ 5 20 км 4/0
[Ac trans Ci fib]
+29.1 +17.6 50 +33 +41 очень
душно
1010.5 958.3
12 15.06 ЮВ 5 25 км 4/1 1320 м
[Cu med, cong Ac trans]
+29.7 +17.4 48 +34 +40 очень
душно
1010.7 958.6
13 15.06 ЮВ 4 20 км слаб. ливневой дождь 9/1 1470 м
[Cu med, cong Ac As]
+28.0 +18.0 55 +33 +36 очень
душно
1010.5 958.2
14 15.06 ЮВ 5 20 км в посл. час ливневой дождь 9/1 1380 м
[Cu med, cong Ac trans Ci fib]
+28.6 +18.0 53 +33 +36 очень
душно
1010.3 958.1
15 15.06 ЮВ 5 20 км {ливн. осадки} 9/1 1350 м
[Cu med, cong Ac trans]
+29.3 +18.2 51 +34 +36 очень
душно
1009.6 957.5
16 15.06 ЮВ 6 20 км 3/1 1470 м
[Cu med, cong Ac lent Ci fib]
+29.0 +16.5 47 +32 +34 душно 1009.0 956.9
17 15.06 ЮВ 5 20 км 4/1 1500 м
[Cb cap Ac trans Ci fib]
+28.0 +17.0 51 +32 +32 душно 1009.2 956.9
18 15.06 ЮВ 2 20 км гроза без осадков {ливн. осадки} 9/1 1500 м
[Cb cap Ac trans]
+26.4 +18.0 60 +31 +31 душно 1009.6 957.0 +30.3 0.0
19 15.06 С 5 20 км в посл. час гроза 6/1 1500 м
[Cb cap Ac trans Ci ing]
+22.8 +14.3 59 +26 +26 жарко 1011.2 957.8
20 15.06 С 3 20 км 3/3 1320 м
[Sc Ci ing]
+21.9 +14.0 61 +25 +25 комфорт 1011.7 958.1
21 15.06 СЗ 5 25 км зарница {гроза} 9/3 1410 м
[Cb cap Ac trans]
+21.8 +13.6 60 +25 +25 комфорт 1012.0 958.4
22 15.06 СЗ 5
{11}
20 км зарница 5/1 1500 м
[Cb cap Ac trans]
+19.8 +14.1 70 +22 +22 комфорт 1013.1 959.1
23 15.06 СЗ 6 20 км зарница 9/9 1200 м
[Cb cap]
+19.0 +14.8 77 +20 +20 1014.1 959.9
00 16.06 С 5
{11}
20 км в посл. час гроза 6/1 1500 м
[Cb cap Ac As]
+19.2 +14.2 73 +20 +20 1013.1 959.0
01 16.06 С 4 20 км 8/0
[Ac inh]
+18.4 +14.5 78 +19 +19 1013.5 959.2
02 16.06 С 4 25 км 1/1 1500 м
[Cb cap]
+17.6 +14.6 83 +17 +17 1013.4 959.0
03 16.06 С 5 20 км 1/1 1500 м
[Cb cap Ac trans Ci fib]
+16.9 +14.8 87 +16 +16 1013.6 959.1
04 16.06 СЗ 4 20 км 1/1 1500 м
[Sc]
+16.6 +14.8 89 +16 +16 1014.2 959.6
05 16.06 З 4 20 км 9/9 1110 м
[Sc]
+17.6 +15.4 87 +17 +17 1015.1 960.6
06 16.06 З 6 20 км 10/10 1300 м
[Sc]
+18.6 +16.0 85 +19 +19 1015.6 961.3 +16.5
07 16.06 СЗ 5 25 км 9/9 1350 м
[Sc]
+19.3 +16.3 83 +21 +21 комфорт 1015.8 961.6
08 16.06 СЗ 4 25 км 9/9 1380 м
[Sc]
+20.0 +16.0 78 +23 +23 комфорт 1016.1 962.0
09 16.06 СЗ 4 20 км 9/9 570 м
[Cb cap]
+21.1 +16.0 73 +24 +25 комфорт 1016.2 962.3
10 16.06 СЗ 6 20 км 10/10 660 м
[Cu Sc]
+20.4 +16.3 77 +23 +23 комфорт 1017.1 963.0
11 16.06 СЗ 6 25 км 9/8 600 м
[Cu Sc Ac und]
+20.7 +16.1 75 +24 +25 комфорт 1017.0 963.0
12 16.06 СЗ 6
{11}
25 км 9/6 450 м
[Cu Sc Ac trans]
+19.7 +15.4 76 +21 +23 комфорт 1017.6 963.4
13 16.06 СЗ 6 25 км 8/6 540 м
[Cu Sc Ac trans]
+20.7 +15.1 70 +23 +25 комфорт 1017.4 963.4
14 16.06 СЗ 8 25 км 6/4 660 м
[Cu Sc Ac trans Ci fib]
+20.7 +14.9 69 +23 +24 комфорт 1017.5 963.4
15 16.06 З 8 30 км 4/1 1500 м
[Sc Ac trans Ci fib]
+20.7 +14.6 68 +23 +24 комфорт 1017.4 963.3
16 16.06 СЗ 7 30 км 4/3 800 м
[Cu Sc Ac trans Ci fib]
+20.3 +14.2 68 +22 +23 комфорт 1017.8 963.6
17 16.06 СЗ 6 30 км 8/6 840 м
[Cu Sc Ac trans Ci fib]
+18.9 +12.8 68 +19 +20 1018.8 964.3
18 16.06 СЗ 5 30 км 6/3 1020 м
[Sc Ci fib]
+17.8 +12.1 69 +17 +17 1019.7 964.9 +21.5
19 16.06 СЗ 5 30 км 6/1 1350 м
[Sc Ci fib]
+17.4 +12.5 73 +17 +17 1019.1 964.3
20 16.06 СЗ 4 30 км 5/0
[Ci fib]
+16.9 +12.0 73 +16 +16 1019.6 964.7
21 16.06 СЗ 3 30 км 5/0
[Ci fib]
+16.3 +11.8 75 +16 +16 1021.1 966.0
22 16.06 СЗ 5 30 км 6/0
[Ci]
+15.8 +11.7 77 +15 +15 1020.8 965.6
23 16.06 СЗ 4 30 км 4/0
[Ac trans Cs]
+15.8 +11.6 76 +15 +15 1020.8 965.6
00 17.06 С 4 30 км 3/0
[Ac trans]
+15.3 +11.9 80 +14 +14 1020.4 965.1
01 17.06 СЗ 4 30 км 8/8 1500 м
[Sc]
+15.1 +12.1 82 +14 +14 1020.8 965.5
02 17.06 СЗ 5 30 км 4/4 1500 м
[Sc]
+13.8 +11.9 88 +12 +12 1021.1 965.5
03 17.06 СЗ 4 30 км 9/9 1500 м
[Sc]
+14.4 +12.0 85 +13 +13 1021.2 965.7
04 17.06 СЗ 3 30 км 8/8 1260 м
[Sc]
+14.8 +12.3 85 +14 +14 1021.4 966.0
05 17.06 СЗ 3 30 км 4/1 1320 м
[Sc Ac trans Cc]
+15.9 +12.4 80 +15 +17 1021.3 966.1
06 17.06 С 3 30 км 3/1 1230 м
[Sc Ac trans]
+17.5 +12.1 71 +18 +21 1021.0 966.1 +13.6
07 17.06 СВ 5 25 км 1/1 1470 м
[Sc Ac trans]
+19.5 +11.5 60 +21 +24 комфорт 1020.8 966.3
08 17.06 С 4 30 км 3/3 900 м
[Cu med, cong Ac trans]
+20.1 +12.5 62 +22 +28 комфорт 1020.7 966.3
09 17.06 С 3 30 км 6/6 960 м
[Cu med, cong Ac trans]
+20.4 +11.7 57 +23 +28 комфорт 1020.4 966.1
10 17.06 С 3 30 км 9/9 1020 м
[Cu Sc Ac trans]
+21.2 +11.8 55 +23 +25 комфорт 1020.3 966.1
11 17.06 СВ 3 30 км 9/9 1050 м
[Cu Sc Ac trans]
+21.4 +11.1 52 +23 +25 комфорт 1020.1 966.0
12 17.06 С 3 20 км 5/5 1110 м
[Cu Sc Ac trans Ci fib]
+22.8 +12.7 53 +26 +33 жарко 1019.4 965.6
13 17.06 СВ 4 30 км 6/4 1260 м
[Cu med, cong Ac trans Ci fib]
+22.5 +12.3 52 +25 +30 комфорт 1019.3 965.4
14 17.06 СВ 3 30 км 8/8 1350 м
[Cu Sc Ac trans Ci fib]
+23.8 +12.1 48 +26 +27 жарко 1018.7 965.1
15 17.06 СВ 5 30 км 9/6 1470 м
[Cu med, cong Ci]
+23.6 +11.6 47 +25 +27 комфорт 1018.1 964.5
16 17.06 СВ 3 30 км 9/5 1500 м
[Cu med, cong Ci]
+23.1 +11.4 48 +25 +27 комфорт 1017.9 964.2
17 17.06 В 3 30 км 9/1 1500 м
[Cu hum Ci]
+22.5 +12.0 51 +25 +26 комфорт 1017.8 964.0
18 17.06 В 3 30 км 8/1 1500 м
[Cu hum Ci fib]
+21.0 +12.3 58 +24 +24 комфорт 1018.1 964.0 +24.2
19 17.06 СВ 3 30 км 6/1 1500 м
[Sc Ci fib]
+19.8 +11.9 60 +22 +22 комфорт 1018.6 964.3
20 17.06 СВ 3 30 км 5/0
[Ac trans Ci fib]
+18.6 +11.1 62 +19 +19 1019.3 964.7
21 17.06 СВ 3 30 км 6/0
[Ci fib]
+17.9 +10.5 62 +18 +18 1019.3 964.6
22 17.06 С 3 30 км 9/0
[Cs]
+17.6 +10.5 63 +18 +18 1019.4 964.6
23 17.06 С 2 30 км 10/0
[Cs]
+17.1 +10.5 65 +17 +17 1019.3 964.4
00 18.06 С 2 30 км 10/0 2000 м
[Ac trans Cs]
+16.8 +10.0 64 +17 +17 1019.1 964.2
01 18.06 СВ 3 30 км 6/0
[Ac trans Ci fib]
+16.5 +9.6 64 +16 +16 1018.8 963.8
02 18.06 С 3 30 км 5/0
[Ac trans Ci fib]
+15.9 +9.5 66 +15 +15 1018.6 963.5
03 18.06 С 3 30 км 4/0
[Ac trans Ci fib]
+15.6 +9.8 68 +15 +15 1018.5 963.4
04 18.06 С 2 30 км 8/0
[Ci]
+15.7 +10.1 69 +16 +16 1018.6 963.5
05 18.06 С 2 25 км 8/0
[Ac trans Ci]
+17.2 +10.9 66 +18 +19 1018.3 963.5
06 18.06 СВ 3 30 км 8/0
[Ci]
+19.4 +11.7 61 +21 +24 комфорт 1017.9 963.5 +15.4
07 18.06 СВ 4 30 км 9/0
[Cs]
+19.4 +11.3 59 +21 +25 комфорт 1018.1 963.7
08 18.06 СВ 4 30 км 8/0
[Cc]
+20.9 +11.6 55 +23 +30 комфорт 1017.5 963.4
09 18.06 СВ 4 30 км 6/0
[Cc]
+22.8 +12.1 51 +25 +34 комфорт 1016.9 963.2
10 18.06 В 3 30 км 6/1 1500 м
[Cu hum Ci fib]
+23.3 +11.2 46 +26 +37 жарко 1016.5 962.9
11 18.06 В 4 30 км 6/1 1500 м
[Cu hum Cc]
+23.6 +9.9 42 +25 +34 комфорт 1016.1 962.5
12 18.06 ЮВ 4 30 км 6/1 1500 м
[Cu hum Cc]
+25.4 +10.2 38 +26 +35 жарко 1015.3 962.1
13 18.06 ЮВ 4 30 км 6/1 1500 м
[Cu hum Cc]
+25.3 +12.1 44 +27 +35 жарко 1014.9 961.7
14 18.06 В 3 30 км 6/3 1500 м
[Cu hum Ci fib]
+25.9 +12.4 43 +27 +34 жарко 1014.2 961.2
15 18.06 ЮВ 4 30 км 5/3 1500 м
[Cu hum Ci fib]
+25.5 +12.5 44 +27 +31 жарко 1013.9 960.8
16 18.06 В 4 30 км 5/1 1500 м
[Cu hum Ci fib]
+25.2 +12.2 44 +27 +29 жарко 1013.7 960.6
17 18.06 В 2 30 км 4/1 1500 м
[Cu hum Ci fib]
+24.1 +12.5 48 +26 +28 жарко 1013.8 960.5
18 18.06 ЮВ 2 30 км 3/0
[Ci fib]
+23.3 +12.3 50 +26 +26 жарко 1014.0 960.5 +26.0
19 18.06 ЮВ 2 30 км 3/0
[Ci fib]
+21.9 +12.5 55 +24 +24 комфорт 1014.1 960.4
20 18.06 В 2 30 км 1/0
[Ci fib]
+21.6 +12.8 57 +24 +24 комфорт 1014.7 960.9
21 18.06 В 2 30 км 4/0
[Ci fib]
+20.7 +14.1 66 +24 +24 комфорт 1014.7 960.8
22 18.06 В 2 30 км 3/0
[Ci fib]
+19.3 +14.0 71 +21 +21 комфорт 1014.6 960.4
23 18.06 В 2 30 км 1/0
[Ci fib]
+19.7 +14.1 70 +22 +22 комфорт 1014.3 960.2
00 19.06 В 3 30 км 1/0
[Ci fib]
+19.0 +13.9 72 +20 +20 1014.3 960.1
01 19.06 В 3 30 км 1/0
[Ci fib]
+18.4 +13.9 75 +19 +19 1014.0 959.7
02 19.06 В 2 30 км 1/0
[Ci fib]
+17.4 +14.1 81 +18 +18 1013.8 959.3
03 19.06 С 2 30 км 1/0
[Ci fib]
+16.9 +14.1 84 +17 +17 1013.9 959.3
04 19.06 С 2 30 км 1/0
[Ci fib]
+17.6 +14.3 81 +18 +19 1013.5 959.1
05 19.06 В 3 30 км 1/0
[Ci fib]
+18.9 +15.0 78 +20 +22 1013.4 959.2
06 19.06 В 3 20 км 1/0 2000 м
[Ac trans Ci fib]
+20.3 +15.2 73 +23 +27 комфорт 1013.3 959.4 +16.8
07 19.06 В 3 20 км 1/1 630 м
[Cu hum Ac trans Ci fib]
+22.4 +16.2 68 +27 +33 душно 1012.8 959.3
08 19.06 В 4 20 км 3/3 720 м
[Cu hum Ac trans]
+23.6 +16.4 64 +27 +33 жарко 1012.2 959.0
09 19.06 ЮВ 5 20 км 6/6 840 м
[Cu med, cong Ac trans]
+24.3 +16.1 60 +28 +31 душно 1012.0 958.9
10 19.06 ЮВ 5 25 км 6/6 1000 м
[Cu med, cong Ac trans]
+25.2 +15.7 56 +28 +32 жарко 1011.3 958.4
11 19.06 Ю 5 25 км 6/6 1140 м
[Cu med, cong Ci fib]
+26.4 +15.4 51 +29 +33 жарко 1010.7 958.0
12 19.06 ЮВ 4 25 км 6/6 1350 м
[Cu Sc Ci fib]
+27.5 +14.8 46 +30 +35 жарко 1010.1 957.6
13 19.06 ЮВ 4 25 км 6/6 1410 м
[Cb calv Ci fib]
+26.9 +13.6 44 +29 +33 жарко 1009.8 957.2
14 19.06 ЮВ 4 25 км 6/5 1470 м
[Cb cap Ci ing]
+28.2 +13.8 41 +30 +34 жарко 1008.8 956.5
15 19.06 ЮВ 4 25 км 5/3 1500 м
[Cb calv Ac trans Ci ing]
+28.3 +12.8 38 +30 +33 жарко 1008.1 955.8
16 19.06 ЮВ 4 25 км 8/4 1500 м
[Cb cap Ac As Ci ing]
+27.2 +14.2 45 +29 +31 жарко 1008.1 955.7
17 19.06 ЮВ 5 20 км гроза без осадков 9/9 1470 м
[Cb cap Ci ing]
+25.0 +16.8 60 +29 +29 душно 1008.6 955.8
18 19.06 С 11
{19}
600 м сильн. гроза с градом {ливн. осадки} [макс. диам. градин 5 мм] 10/10 150 м
[Cb cap]
+14.0 +13.5 97 +11 +11 1013.7 958.6 +29.0 35
19 19.06 С 4
{16}
15 км слаб. ливневой дождь, в посл. час гроза 10/3 1200 м
[Cb cap As op]
+15.9 +14.5 91 +15 +15 1012.2 957.6
20 19.06 В 2 25 км слаб. дождь 10/6 1500 м
[Sc As op]
+16.4 +14.4 88 +16 +16 1011.7 957.2
21 19.06 В 3
{16}
25 км в посл. час дождь {гроза, ливн. осадки} [макс. диам. градин 5 мм] 10/0 2000 м
[Ac As]
+16.3 +14.5 89 +16 +16 1011.7 957.2
22 19.06 З 3 20 км 10/0
[Ac As]
+15.8 +14.4 91 +15 +15 1011.5 956.9
23 19.06 СВ 2 15 км 9/0
[As op]
+15.6 +14.5 93 +15 +15 1011.9 957.2
00 20.06 СЗ 2
{16}
15 км {гроза, ливн. осадки} [макс. диам. градин 5 мм] 6/0
[Ci fib]
+15.6 +14.3 92 +15 +15 1011.9 957.2 17
01 20.06 С 2 20 км 6/0
[Ci fib]
+15.4 +14.2 93 +15 +15 1011.9 957.2
02 20.06 С 2 8000 м дымка 4/0
[Ci fib]
+14.3 +13.9 97 +14 +14 1011.8 956.9
03 20.06 В 2 4000 м дымка 6/0
[Ci fib]
+15.1 +14.3 95 +15 +15 1011.9 957.1
04 20.06 С 1 2000 м дымка 6/0
[Ci fib]
+15.9 +14.9 94 +17 +17 1011.8 957.2
05 20.06 СВ 1 4000 м в посл. час туман 4/0
[Ac trans Ci fib]
+17.3 +15.4 89 +18 +20 1011.4 957.1
06 20.06 ЮВ 2 6000 м дымка {туман} 1/0 2000 м
[Ac trans Ci fib]
+18.1 +16.3 89 +19 +23 1011.8 957.6 +13.9 17
07 20.06 Ю 3 12 км 3/3 240 м
[Cu hum Ac trans Ci fib]
+19.3 +16.0 81 +21 +26 комфорт 1012.1 958.1
08 20.06 Ю 2 15 км 3/1 330 м
[Cu hum Ac trans Ci fib]
+20.5 +17.4 82 +25 +34 комфорт 1012.0 958.3
09 20.06 В 2 15 км 3/1 540 м
[Cu hum Ac trans]
+23.1 +17.7 72 +29 +40 очень
душно
1011.4 958.2
10 20.06 В 2 20 км 1/1 700 м
[Cu med, cong Ci fib]
+23.6 +17.5 69 +28 +43 душно 1011.4 958.2
11 20.06 З 1 25 км 3/3 930 м
[Cu med, cong Ci fib]
+25.3 +17.3 61 +29 +44 душно 1010.7 957.9
12 20.06 Ю 2 30 км 4/4 1110 м
[Cu med, cong Ci fib]
+25.8 +17.7 61 +30 +40 душно 1010.2 957.5
13 20.06 ЮЗ 2 10 км гроза без осадков 5/5 1380 м
[Cb cap Ci fib]
+26.3 +15.7 52 +29 +37 жарко 1009.2 956.6
14 20.06 З 10 7000 м гроза, ливневой дождь 9/9 1200 м
[Cb cap Ci ing]
+19.0 +15.5 80 +19 +19 1011.2 957.2
15 20.06 В 3
{14}
20 км гроза, ливневой дождь 9/4 1200 м
[Cb cap Ac cuf Ci ing]
+18.8 +15.5 81 +20 +22 1011.9 957.8
16 20.06 В 2 30 км в посл. час гроза {дождь} 8/3 1350 м
[Sc diur, vesp As op]
+18.0 +16.5 91 +19 +20 1012.0 957.8
17 20.06 СВ 1 40 км 6/0
[Ac trans Ci sp]
+19.9 +16.3 80 +23 +25 комфорт 1011.7 957.8
18 20.06 С 2
{14}
30 км {гроза, дождь} 3/0
[Ac trans Ci sp]
+18.9 +16.8 88 +21 +21 комфорт 1012.1 958.1 +26.6 2
19 20.06 З 3 20 км 3/0
[Ac trans Ci sp]
+18.9 +17.2 90 +20 +20 1011.8 957.8
20 20.06 В 2 12 км 8/0
[Ac und]
+18.8 +17.4 92 +21 +21 комфорт 1013.2 959.1

 

Местоположение метеостанции Замок Namest nad Oslav (Чехия): широта 49.17 долгота 16.12 высота над уровнем моря 479 м.

В архиве по умолчанию представлена погода в Замке Namest nad Oslav за последнюю неделю. Архивные данные за месяц целиком и за предыдущие месяцы, начиная с января 2011 года, Вы можете получить, выбрав интересующий диапазон дат из раскрывающегося списка и нажав кнопку "Ввод!".


*Определитесь, кто Вы:
робот инопланетянин человек

Внимание! Время в таблицах - всемирное. Для получения местного времени необходимо прибавить поправку, которая равна 1 ч.

Смотрите также архив погоды в соседних городах и на ближайших метеорологических станциях:

Погода на АЭС Дукованы (Чехия) (8 км)
Погода в Кучарловице (Чехия) (32 км)
Погода в Брно (Чехия) (42 км)
Погода в Реце (Австрия) (46 км)
Погода в Церкви Мыслова (Чехия) (47 км)
Погода в Пршибиславе (Чехия) (52 км)
Погода в Свраточе (Чехия) (63 км)
Погода в Пойсдорфе (Австрия) (67 км)
Погода в Лейзер Берге (Австрия) (69 км)
Погода в Гарс-ам-Кампе (Австрия) (73 км)

Пояснения к столбцам:

Ветер - указаны скорость ветра в м/с - средняя за 10 мин, порывы в срок и между сроками (в фигурных скобках) и направление, откуда дует ветер: С - северный, СВ - северо-восточный, В - восточный, ЮВ - юго-восточный, Ю - южный, ЮЗ - юго-западный, З - западный, СЗ - северо-западный.
Видимость - горизонтальная дальность видимости в метрах или километрах. При видимости от 1 до 10 км при отсутствии осадков обычно наблюдается дымка, при ухудшении видимости до 1 км и менее - туман. В сухую погоду видимость может ухудшаться дымом, пылью или мглою.
Явления - указаны атмосферные явления, наблюдавшиеся в срок или в последний час перед сроком; фигурными скобками обозначены явления, наблюдавшиеся между сроками (за 1-3 часа до срока); квадратными скобками обозначены град или гололедные отложения с указанием их диаметра в мм.
Облачность - указаны через наклонную черту общая и нижняя облачность в баллах и высота нижней границы облаков в метрах; квадратными скобками обозначены формы облаков: Ci - перистые, Cs - перисто-слоистые, Cc - перисто-кучевые, Ac - высококучевые, As - высокослоистые, Sc - слоисто-кучевые, Ns - слоисто-дождевые, Cu - кучевые, Cb - кучево-дождевые. Подробнее классификацию облаков см. в Атласе облаков (PDF).
T - Температура воздуха - температура, измеренная на высоте 2 м над землей.
Td - Температура точки росы - температура, при понижении до которой содержащийся в воздухе водяной пар достигнет насыщения.
f - Относительная влажность воздуха - влажноcть воздуха, измеренная на высоте 2 м над землей.
Te - Эффективная температура - температура, которую ощущает одетый по сезону человек в тени. Характеристика душности погоды. При расчете учитывается влияние влажности воздуха и скорости ветра на теплоощущения человека.
Tes - Эффективная температура на солнце - температура, которую ощущает человек, с поправкой на солнечный нагрев. Характеристика знойности погоды. Зависит от высоты солнца над горизонтом, облачности и скорости ветра. Ночью, в пасмурную погоду, а также при ветре 12 м/с и более поправка равна нулю.
P - Атмосферное давление - приведенное к уровню моря атмосферное давление.
Po - Атмосферное давление - измеренное на уровне метеостанции атмосферное давление.
Tmin - Минимальная температура - минимум температуры воздуха на высоте 2 м над землей.
Tmax - Максимальная температура - максимум температуры воздуха на высоте 2 м над землей.
R - Количество осадков - Количество выпавших осадков за период времени, мм. При наведении курсора мыши на число - период времени, за который выпало указанное количество осадков.
R24 - Количество осадков - Количество выпавших осадков за 24 часа, мм.
S - Снежный покров - Высота снежного покрова, см. При наведении курсора мыши на число - состояние снежного покрова и степень покрытия местности в баллах.